Location: Niverville
(49.6028°N, 97.0419°W)
Time: 11:23:14
(UTC-06:00)

ISS - All Passes

Search period start: 18 December 2014 00:00
Search period end: 28 December 2014 00:00
Orbit: 404 x 415 km, 51.6° (Epoch: 18 December)

Date Brightness Start Highest point End Pass type
(mag) Time Alt. Az. Time Alt. Az. Time Alt. Az.
18 Dec - 14:34:23 10° S 14:36:18 15° SE 14:38:12 10° ESE daylight
18 Dec - 16:09:07 10° WSW 16:12:24 64° SSE 16:15:40 10° ENE daylight
18 Dec - 17:45:47 10° W 17:49:03 59° N 17:52:19 10° ENE visible
18 Dec - 19:22:31 10° WNW 19:25:49 81° NNE 19:29:06 10° ESE visible
18 Dec - 20:59:19 10° W 21:02:12 28° SW 21:05:03 10° SSE night (unlit)
19 Dec - 15:18:37 10° SW 15:21:46 43° SSE 15:24:55 10° ENE daylight
19 Dec - 16:55:00 10° W 16:58:18 66° N 17:01:35 10° ENE daylight
19 Dec - 18:31:48 10° WNW 18:35:05 66° N 18:38:21 10° E visible
19 Dec - 20:08:28 10° WNW 20:11:37 43° SSW 20:14:44 10° SE visible
20 Dec - 14:28:15 10° SSW 14:31:08 28° SE 14:34:02 10° E daylight
20 Dec - 16:04:12 10° WSW 16:07:30 81° NNW 16:10:49 10° ENE daylight
20 Dec - 17:41:00 10° WNW 17:44:16 59° N 17:47:32 10° E visible
20 Dec - 19:17:39 10° WNW 19:20:55 64° SSW 19:24:10 10° ESE visible
20 Dec - 20:55:07 10° WSW 20:57:00 15° SW 20:58:53 10° S night (unlit)
21 Dec - 13:38:07 10° S 13:40:30 19° SE 13:42:53 10° E daylight
21 Dec - 15:13:24 10° WSW 15:16:42 77° SSE 15:20:00 10° ENE daylight
21 Dec - 16:50:08 10° W 16:53:24 58° N 16:56:39 10° E daylight
21 Dec - 18:26:49 10° WNW 18:30:08 88° SSW 18:33:25 10° ESE visible
21 Dec - 20:03:45 10° W 20:06:24 23° SW 20:09:02 10° SSE visible
22 Dec - 12:48:38 10° SSE 12:49:53 12° SE 12:51:08 10° ESE daylight
22 Dec - 14:22:39 10° SW 14:25:53 53° SSE 14:29:06 10° ENE daylight
22 Dec - 15:59:11 10° W 16:02:28 62° N 16:05:44 10° ENE daylight
22 Dec - 17:35:56 10° WNW 17:39:15 73° NNE 17:42:31 10° E visible
22 Dec - 19:12:39 10° W 19:15:41 34° SSW 19:18:41 10° SE visible
23 Dec - 13:32:00 10° SW 13:35:03 35° SSE 13:38:06 10° E daylight
23 Dec - 15:08:12 10° W 15:11:30 72° NNW 15:14:48 10° ENE daylight
23 Dec - 16:44:59 10° WNW 16:48:16 62° N 16:51:32 10° E daylight
23 Dec - 18:21:37 10° WNW 18:24:51 52° SSW 18:28:02 10° SE visible
23 Dec - 19:59:44 10° WSW 20:00:49 11° SW 20:01:53 10° SSW visible
24 Dec - 12:41:32 10° SSW 12:44:13 23° SE 12:46:55 10° E daylight
24 Dec - 14:17:11 10° WSW 14:20:30 89° S 14:23:48 10° ENE daylight
24 Dec - 15:53:57 10° W 15:57:13 58° N 16:00:29 10° E daylight
24 Dec - 17:30:36 10° WNW 17:33:54 76° SSW 17:37:11 10° ESE visible
24 Dec - 19:07:45 10° W 19:10:04 18° SW 19:12:23 10° S visible
25 Dec - 11:51:26 10° S 11:53:24 15° SE 11:55:22 10° ESE daylight
25 Dec - 13:26:12 10° WSW 13:29:29 65° SSE 13:32:46 10° ENE daylight
25 Dec - 15:02:51 10° W 15:06:07 59° N 15:09:23 10° ENE daylight
25 Dec - 16:39:33 10° WNW 16:42:52 81° NNE 16:46:09 10° ESE daylight
25 Dec - 18:16:21 10° W 18:19:13 28° SW 18:22:03 10° SSE visible
26 Dec - 12:35:18 10° SW 12:38:28 44° SSE 12:41:37 10° ENE daylight
26 Dec - 14:11:41 10° W 14:14:58 66° N 14:18:16 10° ENE daylight
26 Dec - 15:48:27 10° WNW 15:51:44 66° N 15:55:01 10° E daylight
26 Dec - 17:25:05 10° WNW 17:28:14 42° SSW 17:31:21 10° SE visible
27 Dec - 11:44:32 10° SSW 11:47:26 29° SE 11:50:20 10° E daylight
27 Dec - 13:20:29 10° WSW 13:23:47 80° NNW 13:27:06 10° ENE daylight
27 Dec - 14:57:15 10° WNW 15:00:32 59° N 15:03:47 10° E daylight
27 Dec - 16:33:53 10° WNW 16:37:09 64° SSW 16:40:24 10° ESE daylight
27 Dec - 18:11:20 10° WSW 18:13:12 14° SW 18:15:05 10° S visible
